User: anonymous   Login
Location: Unspecified
(0.0000°N, 0.0000°E)
Time: 13:41:18
(UTC+00:00)
Language:

Okean 2 - Orbit

View from above orbital plane
View from above orbital plane
View from above satellite
View from above satellite

Ground track
Ground track

The orbit data is extracted from the following two-line orbital elements,

1 20510U 90018A   18112.89781792 +.00000450 +00000-0 +34776-4 0  9990
2 20510 082.5172 234.0104 0012647 023.2640 116.0836 14.99131142506726
Epoch (UTC): 22 April 2018 21:32:51
Eccentricity: 0.0012647
inclination: 82.5172°
perigee height: 561 km
apogee height: 578 km
right ascension of ascending node: 234.0104°
argument of perigee: 23.2640°
revolutions per day: 14.99131142
mean anomaly at epoch: 116.0836°
orbit number at epoch: 50672

The dashed part of the orbit path shows where the satellite is in the earth's shadow,  

DLR